Regional Weather Roundup
Issued by NWS Goodland, KS

Home | Current Version | Previous Version | Graphics & Text | Print | Product List | Glossary On
Versions: 1 2 3 4 5 6 7 8 9 10 11 12 13 14 15 16 17 18 19 20 21 22 23 24 25 26 27 28 29 30 31 32 33 34 35 36 37 38 39 40 41 42 43 44 45 46 47 48 49 50
000
ASUS43 KGLD 271708
RWRGLD

GOODLAND FORECAST AREA HOURLY WEATHER ROUNDUP
NATIONAL WEATHER SERVICE GOODLAND KS
1000 AM MST TUE JAN 27 2015

...OFFICIAL OBSERVATIONS...

CITY           SKY/WX    TMP DP  RH WIND       PRES   REMARKS
GOODLAND KS    SUNNY     70  27  20 W12       30.10F
HILL CITY KS   SUNNY     55  33  43 SW3       30.07F
IMPERIAL NEB   SUNNY     55  30  38 W12       30.06F
MCCOOK NEB     SUNNY     52  31  44 W15       30.05F
AKRON CO       SUNNY     55  28  35 W9        30.13S
BURLINGTON CO  SUNNY     64  31  28 SW6       30.14R
LIMON CO       SUNNY     67  17  14 SW15G22   30.17F
$$

...UNOFFICIAL OBSERVATIONS...

CITY           SKY/WX    TMP DP  RH WIND       PRES   REMARKS
COLBY KS       SUNNY     66  37  34 W8        30.09S
GOVE KS          N/A     65  32  29 MISG        N/A
NORTON KS      SUNNY     57  27  30 W9        30.04F
SHARON SPRINGS   N/A     65  34  32 W9          N/A
KIT CARSON CO    N/A     52  32  47 MISG        N/A
YUMA CO          N/A     55  31  39 W6          N/A
$$


USA.gov is the U.S. government's official web portal to all federal, state and local government web resources and services.